sat.trackr.live / text

‹ back to catalog

STARLINK-36438

NORAD 67625 · 2026-020J

PAYLOAD ACTIVE UNKNOWN

§ Identity

Operator
Country
US
Launch date
2026-01-30
Launch site
AFETR
Launch vehicle
Mass (kg)
RCS (m²)

Purposes: comms

External: N2YO · Heavens-Above · Gunter

§ Orbital elements

Epoch: 2026-09-19T00:59:16.650816Z

Period
94.27 min
Inclination
43.0008°
Eccentricity
0.0001570
Mean motion
15.27594748 rev/d
Perigee alt
481.9 km
Apogee alt
484.1 km
Semi-major
6,861.1 km
B*
7.2950e-4
RAAN
127.8854°
Arg perigee
277.2865°
Mean anomaly
82.7808°
Rev number
3,568

§ Raw data

STARLINK-364381 67625U 26020J   26262.04116494  .00019875  00000+0  72950-3 0  99982 67625  43.0008 127.8854 0001570 277.2865  82.7808 15.27594748 35685

JSON: /api/v1/satellites/67625 · /tle

For live sub-satellite position, see the globe view (requires WebGL).

§ Visibility from observer

Set your observer location to see the next 7 days of passes ≥ 10°. The values pass through the URL so the page stays shareable.

No JS? Fill the form by hand. The geolocation button needs JavaScript.